Weather History for Truckee-Tahoe, CA

Change the Weather History Date:

Thursday, January 17, 2013

  Actual Average Record
Temperature  
Mean Temperature 14 °F -  
Max Temperature 32 °F 39 °F 55 °F (1959)
Min Temperature -4 °F 19 °F -7 °F (1955)
Degree Days  
Heating Degree Days 51    
Moisture  
Dew Point 5 °F    
Average Humidity 78    
Maximum Humidity 93    
Minimum Humidity 41    
Precipitation  
Precipitation 0.00 in - - ()
Snow  
Snow 0.00 in - - ()
Snow Depth 18.00 in    
Sea Level Pressure  
Sea Level Pressure 30.45 in    
Wind  
Wind Speed 1 mph (West)    
Max Wind Speed 4 mph    
Max Gust Speed -    
Visibility 7 miles    
Events Fog , Snow    
Averages and records for this station are not official NWS values.
T = Trace of Precipitation, MM = Missing Value Source: NWS Daily Summary

Daily Weather History Graph

Daily Weather History Graph

Search for Another Location

Airport:

Trip Planner

Search our weather history database for the weather conditions in past years. The results will help you decide how hot, cold, wet, or windy it might be!

Date:

Astronomy

Jan. 17, 2013 Rise Set
Actual Time 7:17 AM PST 5:04 PM PST
Civil Twilight 6:48 AM PST 5:33 PM PST
Nautical Twilight 6:15 AM PST 6:06 PM PST
Astronomical Twilight 5:43 AM PST 6:38 PM PST
Moon 10:29 AM PST (1/17) 11:57 PM PST (1/17)
Length of Visible Light 10h 45m
Length of Day
9h 46m
Waxing Crescent, 39% of the Moon is Illuminated
Jan 17
Waxing Crescent
Jan 18
First Quarter
Jan 26
Full
Feb 3
Last Quarter
Feb 9
New

Hourly Weather History & Observations

Time (PST) Temp. Windchill Dew Point Humidity Pressure Visibility Wind Dir Wind Speed Gust Speed Precip Events Conditions
12:15 AM 8.6 °F - 5.0 °F 85% 30.51 in 0.2 mi Calm Calm - N/A Fog Light Freezing Fog
12:35 AM 6.8 °F -0.1 °F 3.2 °F 85% 30.51 in 0.2 mi SSE 3.5 mph - N/A Fog Light Freezing Fog
12:55 AM 5.0 °F - 1.4 °F 85% 30.51 in 0.2 mi Calm Calm - N/A Fog Light Freezing Fog
1:15 AM 6.8 °F -0.1 °F 5.0 °F 92% 30.51 in 9.0 mi NNE 3.5 mph - N/A   Clear
1:35 AM 1.4 °F - -0.4 °F 92% 30.51 in 0.2 mi Calm Calm - N/A Fog Light Freezing Fog
1:55 AM 1.4 °F - -2.2 °F 85% 30.51 in 0.2 mi Calm Calm - N/A Fog Light Freezing Fog
2:15 AM 6.8 °F - 3.2 °F 85% 30.51 in 0.5 mi Calm Calm - N/A Fog Light Freezing Fog
2:35 AM 3.2 °F - -0.4 °F 85% 30.51 in 0.8 mi Calm Calm - N/A   Mist
2:55 AM 6.8 °F - 1.4 °F 79% 30.51 in 2.0 mi Calm Calm - N/A   Clear
3:15 AM 1.4 °F - -0.4 °F 92% 30.50 in 0.2 mi Calm Calm - N/A Fog Light Freezing Fog
3:35 AM 3.2 °F - -0.4 °F 85% 30.49 in 10.0 mi Calm Calm - N/A   Clear
3:55 AM 3.2 °F - -0.4 °F 85% 30.49 in 10.0 mi Calm Calm - N/A   Clear
4:15 AM 1.4 °F - -2.2 °F 85% 30.49 in 0.2 mi Calm Calm - N/A Fog Light Freezing Fog
4:35 AM -0.4 °F - -4.0 °F 85% 30.49 in 0.5 mi Calm Calm - N/A Fog Light Freezing Fog
4:55 AM 1.4 °F - -0.4 °F 92% 30.49 in 0.2 mi Calm Calm - N/A Fog Light Freezing Fog
5:15 AM -0.4 °F - -2.2 °F 92% 30.49 in 0.2 mi Calm Calm - N/A Fog Light Freezing Fog
5:35 AM -0.4 °F - -4.0 °F 85% 30.48 in 0.5 mi Calm Calm - N/A Fog Light Freezing Fog
6:55 AM -0.4 °F - -4.0 °F 85% 30.49 in 10.0 mi Calm Calm - N/A   Clear
7:45 AM -4.0 °F - -9.4 °F 78% 30.50 in 10.0 mi Calm Calm - N/A   Clear
8:50 AM 3.2 °F - -0.4 °F 85% 30.51 in 10.0 mi Calm Calm - N/A   Clear
9:55 AM 8.6 °F - 5.0 °F 85% 30.50 in 10.0 mi Calm Calm - N/A   Clear
10:55 AM 12.2 °F - 10.4 °F 92% 30.48 in 10.0 mi Calm Calm - N/A   Clear
11:50 AM 19.4 °F - 17.6 °F 93% 30.44 in 10.0 mi Calm Calm - N/A   Clear
12:45 PM 24.8 °F - 12.2 °F 59% 30.41 in 10.0 mi Calm Calm - N/A   Clear
1:50 PM 32.0 °F - 12.2 °F 44% 30.38 in 10.0 mi Calm Calm - N/A   Clear
2:45 PM 32.0 °F 28.7 °F 14.0 °F 48% 30.37 in 10.0 mi NW 3.5 mph - N/A   Clear
3:45 PM 32.0 °F - 10.4 °F 41% 30.37 in 10.0 mi Calm Calm - N/A   Clear
4:45 PM 28.4 °F 24.6 °F 10.4 °F 47% 30.38 in 10.0 mi NW 3.5 mph - N/A   Clear
4:55 PM 30.2 °F 26.7 °F 12.2 °F 47% 30.38 in 10.0 mi NW 3.5 mph - N/A   Clear
5:15 PM 26.6 °F - 10.4 °F 51% 30.39 in 10.0 mi Calm Calm - N/A   Clear
5:35 PM 23.0 °F 18.4 °F 10.4 °F 59% 30.39 in 10.0 mi SW 3.5 mph - N/A Snow Light Snow
5:55 PM 23.0 °F - 10.4 °F 59% 30.39 in 10.0 mi Calm Calm - N/A Snow Light Snow
6:15 PM 19.4 °F - 10.4 °F 68% 30.40 in 10.0 mi Calm Calm - N/A Snow Light Snow
6:35 PM 21.2 °F - 10.4 °F 63% 30.40 in 10.0 mi Calm Calm - N/A Snow Light Snow
6:55 PM 15.8 °F 10.2 °F 8.6 °F 73% 30.40 in 10.0 mi SSW 3.5 mph - N/A   Clear
7:15 PM 19.4 °F - 10.4 °F 68% 30.40 in 10.0 mi Calm Calm - N/A   Clear
7:35 PM 17.6 °F - 10.4 °F 73% 30.41 in 10.0 mi Calm Calm - N/A   Clear
7:55 PM 12.2 °F - 6.8 °F 79% 30.41 in 10.0 mi Calm Calm - N/A   Clear
9:15 PM 12.2 °F - 8.6 °F 85% 30.41 in 10.0 mi Calm Calm - N/A   Clear
9:35 PM 12.2 °F - 8.6 °F 85% 30.41 in 10.0 mi Calm Calm - N/A   Clear
9:55 PM 12.2 °F - 8.6 °F 85% 30.41 in 10.0 mi Calm Calm - N/A   Clear
10:15 PM 10.4 °F - 8.6 °F 92% 30.41 in 10.0 mi Calm Calm - N/A   Clear
10:35 PM 6.8 °F - 5.0 °F 92% 30.41 in 7.0 mi Calm Calm - N/A   Clear
10:55 PM 8.6 °F - 6.8 °F 92% 30.41 in 10.0 mi Calm Calm - N/A   Clear
11:15 PM 8.6 °F - 6.8 °F 92% 30.41 in 7.0 mi Calm Calm - N/A   Clear
11:35 PM 6.8 °F - 5.0 °F 92% 30.41 in 4.0 mi Calm Calm - N/A   Clear
11:55 PM 8.6 °F - 5.0 °F 85% 30.41 in 6.0 mi Calm Calm - N/A   Clear